Time,TemperatureF,DewpointF,PressureIn,WindDirection,WindDirectionDegrees,WindSpeedMPH,WindSpeedGustMPH,Humidity,HourlyPrecipIn,Conditions,Clouds,dailyrainin,SoftwareType,DateUTC
2013-04-04 00:02:00,55.0,48.0,-100.00,SW,227,7.0,17.0,78,0.00,,,0.00,,2013-04-04 07:02:00,
2013-04-04 00:12:00,55.0,48.0,-100.00,SW,227,7.0,17.0,78,0.00,,,0.00,,2013-04-04 07:12:00,
2013-04-04 00:43:00,52.0,48.0,-100.00,SW,235,5.0,11.0,86,0.00,,,0.00,,2013-04-04 07:43:00,
2013-04-04 00:52:00,52.0,48.0,-100.00,SW,235,5.0,11.0,86,0.00,,,0.00,,2013-04-04 07:52:00,
2013-04-04 01:02:00,52.0,48.0,-100.00,SW,235,5.0,11.0,86,0.00,,,0.00,,2013-04-04 08:02:00,
2013-04-04 01:11:00,52.0,48.0,-100.00,SW,235,5.0,11.0,86,0.00,,,0.00,,2013-04-04 08:11:00,
2013-04-04 01:43:00,56.0,46.0,-100.00,SSE,166,11.0,16.0,68,0.00,,,0.00,,2013-04-04 08:43:00,
2013-04-04 01:52:00,56.0,46.0,-100.00,SSE,166,11.0,16.0,68,0.00,,,0.00,,2013-04-04 08:52:00,
2013-04-04 02:02:00,56.0,46.0,-100.00,SSE,166,11.0,16.0,68,0.00,,,0.00,,2013-04-04 09:02:00,
2013-04-04 02:12:00,56.0,46.0,-100.00,SSE,166,11.0,16.0,68,0.00,,,0.00,,2013-04-04 09:12:00,
2013-04-04 02:43:00,52.0,46.0,-100.00,SW,216,9.0,16.0,80,0.00,,,0.00,,2013-04-04 09:43:00,
2013-04-04 02:53:00,52.0,46.0,-100.00,SW,216,9.0,16.0,80,0.00,,,0.00,,2013-04-04 09:53:00,
2013-04-04 03:03:00,52.0,46.0,-100.00,SW,216,9.0,16.0,80,0.00,,,0.00,,2013-04-04 10:03:00,
2013-04-04 03:12:00,52.0,46.0,-100.00,SW,216,9.0,16.0,80,0.00,,,0.00,,2013-04-04 10:12:00,
2013-04-04 03:43:00,54.0,44.0,-100.00,South,186,11.0,23.0,70,0.00,,,0.00,,2013-04-04 10:43:00,
2013-04-04 03:53:00,54.0,44.0,-100.00,South,186,11.0,23.0,70,0.00,,,0.00,,2013-04-04 10:53:00,
2013-04-04 04:02:00,54.0,44.0,-100.00,South,186,11.0,23.0,70,0.00,,,0.00,,2013-04-04 11:02:00,
2013-04-04 04:12:00,54.0,44.0,-100.00,South,186,11.0,23.0,70,0.00,,,0.00,,2013-04-04 11:12:00,
2013-04-04 04:33:00,51.0,43.0,-100.00,SW,214,14.0,22.0,74,0.04,,,-99.99,,2013-04-04 11:33:00,
2013-04-04 04:43:00,51.0,43.0,-100.00,SW,214,14.0,22.0,74,0.04,,,-99.99,,2013-04-04 11:43:00,
2013-04-04 04:53:00,51.0,43.0,-100.00,SW,214,14.0,22.0,74,0.04,,,-99.99,,2013-04-04 11:53:00,
2013-04-04 05:02:00,51.0,43.0,-100.00,SW,214,14.0,22.0,74,0.04,,,-99.99,,2013-04-04 12:02:00,
2013-04-04 05:12:00,51.0,43.0,-100.00,SW,214,14.0,22.0,74,0.04,,,-99.99,,2013-04-04 12:12:00,
2013-04-04 05:43:00,49.0,43.0,-100.00,South,176,14.0,24.0,79,0.03,,,0.07,,2013-04-04 12:43:00,
2013-04-04 05:52:00,49.0,43.0,-100.00,South,176,14.0,24.0,79,0.03,,,0.07,,2013-04-04 12:52:00,
2013-04-04 06:02:00,49.0,43.0,-100.00,South,176,14.0,24.0,79,0.03,,,0.07,,2013-04-04 13:02:00,
2013-04-04 06:12:00,49.0,43.0,-100.00,South,176,14.0,24.0,79,0.03,,,0.07,,2013-04-04 13:12:00,
2013-04-04 06:43:00,49.0,44.0,-100.00,SSE,156,16.0,26.0,82,0.04,,,0.11,,2013-04-04 13:43:00,
2013-04-04 06:52:00,49.0,44.0,-100.00,SSE,156,16.0,26.0,82,0.04,,,0.11,,2013-04-04 13:52:00,
2013-04-04 07:02:00,49.0,44.0,-100.00,SSE,156,16.0,26.0,82,0.04,,,0.11,,2013-04-04 14:02:00,
2013-04-04 07:12:00,49.0,44.0,-100.00,SSE,156,16.0,26.0,82,0.04,,,0.11,,2013-04-04 14:12:00,
2013-04-04 07:43:00,51.0,46.0,-100.00,South,172,19.0,29.0,82,0.01,,,0.12,,2013-04-04 14:43:00,
2013-04-04 07:52:00,51.0,46.0,-100.00,South,172,19.0,29.0,82,0.01,,,0.12,,2013-04-04 14:52:00,
2013-04-04 08:02:00,51.0,46.0,-100.00,South,172,19.0,29.0,82,0.01,,,0.12,,2013-04-04 15:02:00,
2013-04-04 08:12:00,51.0,46.0,-100.00,South,172,19.0,29.0,82,0.01,,,0.12,,2013-04-04 15:12:00,
2013-04-04 08:43:00,54.0,48.0,-100.00,SSE,165,20.0,31.0,79,0.00,,,0.12,,2013-04-04 15:43:00,
2013-04-04 08:53:00,54.0,48.0,-100.00,SSE,165,20.0,31.0,79,0.00,,,0.12,,2013-04-04 15:53:00,
2013-04-04 09:03:00,54.0,48.0,-100.00,SSE,165,20.0,31.0,79,0.00,,,0.12,,2013-04-04 16:03:00,
2013-04-04 09:12:00,54.0,48.0,-100.00,SSE,165,20.0,31.0,79,0.00,,,0.12,,2013-04-04 16:12:00,
2013-04-04 09:43:00,54.0,49.0,-100.00,South,169,16.0,27.0,82,0.00,,,0.12,,2013-04-04 16:43:00,
2013-04-04 09:53:00,54.0,49.0,-100.00,South,169,16.0,27.0,82,0.00,,,0.12,,2013-04-04 16:53:00,
2013-04-04 10:02:00,54.0,49.0,-100.00,South,169,16.0,27.0,82,0.00,,,0.12,,2013-04-04 17:02:00,
2013-04-04 10:12:00,54.0,49.0,-100.00,South,169,16.0,27.0,82,0.00,,,0.12,,2013-04-04 17:12:00,
2013-04-04 10:43:00,55.0,49.0,-100.00,South,173,16.0,24.0,80,0.00,,,0.12,,2013-04-04 17:43:00,
2013-04-04 10:52:00,55.0,49.0,-100.00,South,173,16.0,24.0,80,0.00,,,0.12,,2013-04-04 17:52:00,
2013-04-04 11:02:00,55.0,49.0,-100.00,South,173,16.0,24.0,80,0.00,,,0.12,,2013-04-04 18:02:00,
2013-04-04 11:12:00,55.0,49.0,-100.00,South,173,16.0,24.0,80,0.00,,,0.12,,2013-04-04 18:12:00,
2013-04-04 11:43:00,57.0,50.0,-100.00,South,175,17.0,26.0,77,0.00,,,0.12,,2013-04-04 18:43:00,
2013-04-04 11:52:00,57.0,50.0,-100.00,South,175,17.0,26.0,77,0.00,,,0.12,,2013-04-04 18:52:00,
2013-04-04 12:02:00,57.0,50.0,-100.00,South,175,17.0,26.0,77,0.00,,,0.12,,2013-04-04 19:02:00,
2013-04-04 12:12:00,57.0,50.0,-100.00,South,175,17.0,26.0,77,0.00,,,0.12,,2013-04-04 19:12:00,
2013-04-04 12:43:00,60.0,52.0,-100.00,South,169,14.0,27.0,76,0.00,,,0.12,,2013-04-04 19:43:00,
2013-04-04 12:52:00,60.0,52.0,-100.00,South,169,14.0,27.0,76,0.00,,,0.12,,2013-04-04 19:52:00,
2013-04-04 13:03:00,60.0,52.0,-100.00,South,169,14.0,27.0,76,0.00,,,0.12,,2013-04-04 20:03:00,
2013-04-04 13:12:00,60.0,52.0,-100.00,South,169,14.0,27.0,76,0.00,,,0.12,,2013-04-04 20:12:00,
2013-04-04 13:42:00,61.0,50.0,-100.00,SSW,198,18.0,25.0,68,0.00,,,0.12,,2013-04-04 20:42:00,
2013-04-04 13:53:00,61.0,50.0,-100.00,SSW,198,18.0,25.0,68,0.00,,,0.12,,2013-04-04 20:53:00,
2013-04-04 14:02:00,61.0,50.0,-100.00,SSW,198,18.0,25.0,68,0.00,,,0.12,,2013-04-04 21:02:00,
2013-04-04 14:12:00,61.0,50.0,-100.00,SSW,198,18.0,25.0,68,0.00,,,0.12,,2013-04-04 21:12:00,
2013-04-04 14:43:00,62.0,51.0,-100.00,SSW,197,17.0,26.0,68,0.00,,,0.12,,2013-04-04 21:43:00,
2013-04-04 14:53:00,62.0,51.0,-100.00,SSW,197,17.0,26.0,68,0.00,,,0.12,,2013-04-04 21:53:00,
2013-04-04 15:03:00,62.0,51.0,-100.00,SSW,197,17.0,26.0,68,0.00,,,0.12,,2013-04-04 22:03:00,
2013-04-04 15:12:00,62.0,51.0,-100.00,SSW,197,17.0,26.0,68,0.00,,,0.12,,2013-04-04 22:12:00,
2013-04-04 15:33:00,63.0,51.0,-100.00,SSW,201,14.0,24.0,65,0.00,,,0.12,,2013-04-04 22:33:00,
2013-04-04 15:43:00,63.0,51.0,-100.00,SSW,201,14.0,24.0,65,0.00,,,0.12,,2013-04-04 22:43:00,
2013-04-04 15:53:00,63.0,51.0,-100.00,SSW,201,14.0,24.0,65,0.00,,,0.12,,2013-04-04 22:53:00,
2013-04-04 16:02:00,63.0,51.0,-100.00,SSW,201,14.0,24.0,65,0.00,,,0.12,,2013-04-04 23:02:00,
2013-04-04 16:12:00,63.0,51.0,-100.00,SSW,201,14.0,24.0,65,0.00,,,0.12,,2013-04-04 23:12:00,
2013-04-04 16:42:00,61.0,50.0,-100.00,SSW,194,14.0,23.0,67,0.00,,,0.12,,2013-04-04 23:42:00,
2013-04-04 16:52:00,61.0,50.0,-100.00,SSW,194,14.0,23.0,67,0.00,,,0.12,,2013-04-04 23:52:00,
2013-04-04 17:02:00,61.0,50.0,-100.00,SSW,194,14.0,23.0,67,0.00,,,0.12,,2013-04-05 00:02:00,
2013-04-04 17:12:00,61.0,50.0,-100.00,SSW,194,14.0,23.0,67,0.00,,,0.12,,2013-04-05 00:12:00,
2013-04-04 17:42:00,60.0,51.0,-100.00,WSW,257,12.0,21.0,72,0.00,,,0.12,,2013-04-05 00:42:00,
2013-04-04 17:52:00,60.0,51.0,-100.00,WSW,257,12.0,21.0,72,0.00,,,0.12,,2013-04-05 00:52:00,
2013-04-04 18:02:00,60.0,51.0,-100.00,WSW,257,12.0,21.0,72,0.00,,,0.12,,2013-04-05 01:02:00,
2013-04-04 18:12:00,60.0,51.0,-100.00,WSW,257,12.0,21.0,72,0.00,,,0.12,,2013-04-05 01:12:00,
2013-04-04 18:42:00,58.0,52.0,-100.00,WSW,258,12.0,19.0,79,0.00,,,0.12,,2013-04-05 01:42:00,
2013-04-04 18:53:00,58.0,52.0,-100.00,WSW,258,12.0,19.0,79,0.00,,,0.12,,2013-04-05 01:53:00,
2013-04-04 19:02:00,58.0,52.0,-100.00,WSW,258,12.0,19.0,79,0.00,,,0.12,,2013-04-05 02:02:00,
2013-04-04 19:12:00,58.0,52.0,-100.00,WSW,258,12.0,19.0,79,0.00,,,0.12,,2013-04-05 02:12:00,
2013-04-04 19:42:00,56.0,51.0,-100.00,WSW,252,15.0,21.0,83,0.00,,,0.12,,2013-04-05 02:42:00,
2013-04-04 19:52:00,56.0,51.0,-100.00,WSW,252,15.0,21.0,83,0.00,,,0.12,,2013-04-05 02:52:00,
2013-04-04 20:02:00,56.0,51.0,-100.00,WSW,252,15.0,21.0,83,0.00,,,0.12,,2013-04-05 03:02:00,
2013-04-04 20:12:00,56.0,51.0,-100.00,WSW,252,15.0,21.0,83,0.00,,,0.12,,2013-04-05 03:12:00,
2013-04-04 20:43:00,54.0,50.0,-100.00,WSW,245,13.0,22.0,87,0.00,,,0.12,,2013-04-05 03:43:00,
2013-04-04 20:53:00,54.0,50.0,-100.00,WSW,245,13.0,22.0,87,0.00,,,0.12,,2013-04-05 03:53:00,
2013-04-04 21:02:00,54.0,50.0,-100.00,WSW,245,13.0,22.0,87,0.00,,,0.12,,2013-04-05 04:02:00,
2013-04-04 21:12:00,54.0,50.0,-100.00,WSW,245,13.0,22.0,87,0.00,,,0.12,,2013-04-05 04:12:00,
2013-04-04 21:42:00,53.0,50.0,-100.00,WSW,247,11.0,17.0,89,0.00,,,0.12,,2013-04-05 04:42:00,
2013-04-04 21:52:00,53.0,50.0,-100.00,WSW,247,11.0,17.0,89,0.00,,,0.12,,2013-04-05 04:52:00,
2013-04-04 22:02:00,53.0,50.0,-100.00,WSW,247,11.0,17.0,89,0.00,,,0.12,,2013-04-05 05:02:00,
2013-04-04 22:12:00,53.0,50.0,-100.00,WSW,247,11.0,17.0,89,0.00,,,0.12,,2013-04-05 05:12:00,
2013-04-04 22:42:00,53.0,50.0,-100.00,WSW,237,10.0,13.0,90,0.00,,,0.12,,2013-04-05 05:42:00,
2013-04-04 22:52:00,53.0,50.0,-100.00,WSW,237,10.0,13.0,90,0.00,,,0.12,,2013-04-05 05:52:00,
2013-04-04 23:02:00,53.0,50.0,-100.00,WSW,237,10.0,13.0,90,0.00,,,0.12,,2013-04-05 06:02:00,
2013-04-04 23:12:00,53.0,50.0,-100.00,WSW,237,10.0,13.0,90,0.00,,,0.12,,2013-04-05 06:12:00,
2013-04-04 23:42:00,52.0,49.0,-100.00,WSW,238,11.0,14.0,90,0.00,,,0.12,,2013-04-05 06:42:00,
2013-04-04 23:52:00,52.0,49.0,-100.00,WSW,238,11.0,14.0,90,0.00,,,0.12,,2013-04-05 06:52:00,